ACA658 CYUL-CYQM

Flight info

Callsign ACA658
Flight time 1h 0m
Altitude 37000
Route SUXET DCT NOVUN DCT ESRAM DCT RABIK Q951 PUXOP
Aircraft A321/M-SDE3FGHIRWY/LB1

Departure

Time 2026-04-21 00:09
Airport Montreal / Pierre Elliott Trudeau International Airport (CYUL)

Arrival

Time 2026-04-21 01:10
Airport Greater Moncton Roméo LeBlanc International Airport (CYQM)
Time Latitude Longitude Altitude Speed Heading
2026-04-20 23:33 45.45826 -73.75754 107 ft 0 kts 30°
2026-04-20 23:56 45.45808 -73.75769 106 ft 4 kts 27°
2026-04-20 23:56 45.45784 -73.75785 107 ft 4 kts 20°
2026-04-20 23:56 45.45758 -73.75796 107 ft 4 kts
2026-04-20 23:57 45.45735 -73.75793 106 ft 4 kts 320°
2026-04-20 23:57 45.45730 -73.75787 105 ft 0 kts 307°
2026-04-20 23:59 45.45744 -73.75814 106 ft 9 kts 307°
2026-04-20 23:59 45.45801 -73.75913 106 ft 16 kts 321°
2026-04-20 23:59 45.45915 -73.75943 105 ft 17 kts 352°
2026-04-21 00:00 45.46027 -73.75958 105 ft 16 kts 358°
2026-04-21 00:00 45.46124 -73.75911 104 ft 14 kts 74°
2026-04-21 00:00 45.46129 -73.75777 105 ft 14 kts 87°
2026-04-21 00:00 45.46133 -73.75613 104 ft 20 kts 89°
2026-04-21 00:01 45.46138 -73.75412 106 ft 19 kts 88°
2026-04-21 00:01 45.46143 -73.75239 110 ft 16 kts 87°
2026-04-21 00:01 45.46148 -73.75086 109 ft 15 kts 88°
2026-04-21 00:01 45.46151 -73.74934 110 ft 16 kts 89°
2026-04-21 00:02 45.46155 -73.74768 112 ft 16 kts 87°
2026-04-21 00:02 45.46158 -73.74604 109 ft 17 kts 97°
2026-04-21 00:02 45.46124 -73.74456 109 ft 15 kts 88°
2026-04-21 00:02 45.46130 -73.74309 109 ft 15 kts 86°
2026-04-21 00:03 45.46136 -73.74161 108 ft 15 kts 85°
2026-04-21 00:03 45.46167 -73.74018 106 ft 16 kts 49°
2026-04-21 00:03 45.46241 -73.73914 107 ft 14 kts 40°
2026-04-21 00:03 45.46310 -73.73830 108 ft 13 kts 40°
2026-04-21 00:04 45.46372 -73.73752 109 ft 11 kts 44°
2026-04-21 00:04 45.46419 -73.73687 110 ft 11 kts 43°
2026-04-21 00:04 45.46497 -73.73586 113 ft 20 kts 41°
2026-04-21 00:04 45.46623 -73.73434 112 ft 24 kts 40°
2026-04-21 00:05 45.46746 -73.73272 113 ft 24 kts 42°
2026-04-21 00:05 45.46860 -73.73120 114 ft 22 kts 42°
2026-04-21 00:05 45.46966 -73.72981 118 ft 19 kts 44°
2026-04-21 00:05 45.47057 -73.72857 116 ft 18 kts 43°
2026-04-21 00:06 45.47154 -73.72735 119 ft 19 kts 41°
2026-04-21 00:06 45.47257 -73.72603 117 ft 21 kts 43°
2026-04-21 00:06 45.47359 -73.72467 119 ft 19 kts 41°
2026-04-21 00:06 45.47458 -73.72338 118 ft 19 kts 43°
2026-04-21 00:07 45.47545 -73.72222 122 ft 16 kts 43°
2026-04-21 00:07 45.47620 -73.72121 123 ft 14 kts 44°
2026-04-21 00:07 45.47685 -73.72033 126 ft 11 kts 43°
2026-04-21 00:07 45.47736 -73.71964 126 ft 10 kts 43°
2026-04-21 00:08 45.47808 -73.71870 125 ft 17 kts 43°
2026-04-21 00:08 45.47833 -73.71746 124 ft 13 kts 117°
2026-04-21 00:08 45.47737 -73.71655 122 ft 19 kts 164°
2026-04-21 00:08 45.47609 -73.71722 124 ft 31 kts 221°
2026-04-21 00:09 45.47260 -73.72188 116 ft 103 kts 222°
2026-04-21 00:09 45.46592 -73.73060 111 ft 155 kts 223°
2026-04-21 00:09 45.45767 -73.74134 630 ft 156 kts 226°
2026-04-21 00:09 45.44964 -73.75172 1353 ft 157 kts 219°
2026-04-21 00:10 45.43907 -73.75642 1946 ft 169 kts 181°
2026-04-21 00:10 45.42788 -73.74901 2213 ft 195 kts 131°
2026-04-21 00:10 45.42033 -73.73168 2387 ft 218 kts 118°
2026-04-21 00:10 45.41277 -73.71148 2583 ft 245 kts 117°
2026-04-21 00:11 45.40453 -73.68909 3153 ft 263 kts 117°
2026-04-21 00:11 45.39592 -73.66586 4085 ft 268 kts 118°
2026-04-21 00:11 45.38713 -73.64234 5076 ft 271 kts 118°
2026-04-21 00:11 45.37820 -73.61860 6039 ft 274 kts 118°
2026-04-21 00:12 45.36911 -73.59453 6968 ft 278 kts 118°
2026-04-21 00:12 45.35985 -73.57016 7843 ft 282 kts 118°
2026-04-21 00:12 45.35042 -73.54538 8701 ft 287 kts 118°
2026-04-21 00:12 45.34082 -73.52018 9557 ft 292 kts 118°
2026-04-21 00:13 45.33101 -73.49446 10320 ft 302 kts 118°
2026-04-21 00:13 45.32060 -73.46722 10604 ft 325 kts 118°
2026-04-21 00:13 45.30947 -73.43815 11007 ft 342 kts 118°
2026-04-21 00:13 45.29798 -73.40822 11725 ft 348 kts 118°
2026-04-21 00:14 45.28633 -73.37789 12515 ft 352 kts 118°
2026-04-21 00:14 45.27453 -73.34717 13299 ft 357 kts 118°
2026-04-21 00:14 45.26258 -73.31607 14071 ft 361 kts 118°
2026-04-21 00:14 45.25049 -73.28464 14757 ft 365 kts 118°
2026-04-21 00:15 45.23825 -73.25282 15451 ft 369 kts 118°
2026-04-21 00:15 45.22590 -73.22073 16152 ft 373 kts 118°
2026-04-21 00:15 45.21507 -73.18817 16813 ft 376 kts 109°
2026-04-21 00:15 45.20824 -73.15222 17493 ft 380 kts 98°
2026-04-21 00:16 45.20614 -73.11484 18168 ft 383 kts 88°
2026-04-21 00:16 45.20723 -73.07732 18786 ft 386 kts 86°
2026-04-21 00:16 45.20813 -73.04781 19216 ft 388 kts 86°
2026-04-21 00:16 45.21087 -73.02171 19484 ft 389 kts 73°
2026-04-21 00:17 45.21872 -72.98479 20019 ft 393 kts 70°
2026-04-21 00:17 45.22880 -72.94873 20557 ft 395 kts 62°
2026-04-21 00:17 45.24123 -72.91379 21088 ft 398 kts 60°
2026-04-21 00:17 45.25440 -72.87897 21619 ft 402 kts 59°
2026-04-21 00:18 45.26812 -72.84426 22132 ft 406 kts 58°
2026-04-21 00:18 45.28128 -72.80849 22639 ft 411 kts 65°
2026-04-21 00:18 45.29043 -72.76975 23134 ft 416 kts 76°
2026-04-21 00:18 45.29458 -72.72891 23621 ft 421 kts 86°
2026-04-21 00:19 45.29610 -72.68719 24073 ft 425 kts 87°
2026-04-21 00:19 45.29758 -72.64514 24488 ft 428 kts 87°
2026-04-21 00:19 45.29911 -72.60284 24904 ft 430 kts 86°
2026-04-21 00:19 45.30104 -72.56026 25329 ft 433 kts 85°
2026-04-21 00:20 45.30342 -72.51751 25729 ft 436 kts 85°
2026-04-21 00:20 45.30602 -72.47448 26140 ft 438 kts 84°
2026-04-21 00:20 45.30953 -72.41706 26672 ft 442 kts 85°
2026-04-21 00:20 45.31127 -72.38760 26942 ft 444 kts 85°
2026-04-21 00:21 45.31375 -72.34374 27335 ft 447 kts 85°
2026-04-21 00:21 45.31612 -72.29966 27716 ft 449 kts 85°
2026-04-21 00:21 45.31842 -72.25519 28094 ft 452 kts 85°
2026-04-21 00:21 45.32073 -72.21053 28462 ft 455 kts 85°
2026-04-21 00:22 45.32309 -72.16559 28823 ft 457 kts 85°
2026-04-21 00:22 45.32545 -72.12042 29179 ft 460 kts 85°
2026-04-21 00:22 45.32781 -72.07492 29526 ft 463 kts 85°
2026-04-21 00:22 45.33015 -72.02920 29846 ft 465 kts 85°
2026-04-21 00:23 45.33248 -71.98324 30168 ft 468 kts 85°
2026-04-21 00:23 45.33478 -71.93696 30446 ft 471 kts 86°
2026-04-21 00:23 45.33707 -71.89048 30684 ft 473 kts 86°
2026-04-21 00:23 45.33970 -71.84377 30919 ft 476 kts 84°
2026-04-21 00:24 45.34364 -71.79756 31167 ft 478 kts 81°
2026-04-21 00:24 45.34882 -71.75021 31426 ft 480 kts 80°
2026-04-21 00:24 45.35456 -71.70345 31786 ft 480 kts 79°
2026-04-21 00:24 45.36036 -71.65739 32140 ft 479 kts 79°
2026-04-21 00:25 45.36604 -71.61069 32488 ft 479 kts 80°
2026-04-21 00:25 45.37141 -71.56389 32841 ft 479 kts 81°
2026-04-21 00:25 45.37651 -71.51705 33192 ft 479 kts 81°
2026-04-21 00:25 45.38141 -71.47028 33546 ft 479 kts 81°
2026-04-21 00:26 45.38625 -71.42331 33893 ft 479 kts 82°
2026-04-21 00:26 45.39105 -71.37642 34235 ft 479 kts 82°
2026-04-21 00:26 45.39586 -71.32965 34517 ft 478 kts 82°
2026-04-21 00:26 45.40072 -71.28278 34786 ft 478 kts 82°
2026-04-21 00:27 45.40562 -71.23604 35041 ft 479 kts 82°
2026-04-21 00:27 45.41056 -71.18914 35289 ft 479 kts 82°
2026-04-21 00:27 45.41547 -71.14219 35537 ft 479 kts 82°
2026-04-21 00:27 45.42026 -71.09586 35777 ft 480 kts 82°
2026-04-21 00:28 45.42508 -71.04894 36007 ft 480 kts 82°
2026-04-21 00:28 45.42953 -71.00180 36222 ft 480 kts 84°
2026-04-21 00:28 45.43280 -70.95384 36438 ft 480 kts 86°
2026-04-21 00:28 45.43502 -70.90645 36633 ft 480 kts 88°
2026-04-21 00:29 45.43669 -70.85892 36827 ft 481 kts 89°
2026-04-21 00:29 45.43821 -70.81199 37008 ft 481 kts 89°
2026-04-21 00:29 45.43985 -70.76376 37199 ft 481 kts 89°
2026-04-21 00:30 45.44368 -70.66861 37281 ft 481 kts 88°
2026-04-21 00:30 45.45027 -70.57447 37280 ft 482 kts 83°
2026-04-21 00:31 45.46090 -70.48026 37277 ft 482 kts 82°
2026-04-21 00:31 45.47178 -70.38601 37268 ft 482 kts 83°
2026-04-21 00:32 45.48132 -70.29128 37273 ft 483 kts 84°
2026-04-21 00:32 45.49018 -70.19639 37275 ft 483 kts 84°
2026-04-21 00:33 45.49919 -70.10141 37274 ft 484 kts 84°
2026-04-21 00:33 45.50837 -70.00635 37262 ft 484 kts 84°
2026-04-21 00:34 45.51746 -69.91136 37273 ft 484 kts 84°
2026-04-21 00:34 45.52635 -69.81677 37269 ft 484 kts 84°
2026-04-21 00:35 45.53524 -69.72165 37269 ft 484 kts 84°
2026-04-21 00:35 45.54412 -69.62642 37268 ft 484 kts 84°
2026-04-21 00:36 45.55287 -69.53118 37275 ft 484 kts 85°
2026-04-21 00:36 45.56148 -69.43601 37278 ft 483 kts 85°
2026-04-21 00:37 45.57002 -69.34090 37282 ft 483 kts 85°
2026-04-21 00:37 45.57853 -69.24584 37286 ft 483 kts 85°
2026-04-21 00:38 45.58693 -69.15085 37289 ft 482 kts 85°
2026-04-21 00:38 45.59521 -69.05576 37292 ft 482 kts 85°
2026-04-21 00:39 45.60342 -68.96075 37296 ft 482 kts 85°
2026-04-21 00:39 45.61159 -68.86574 37298 ft 482 kts 86°
2026-04-21 00:40 45.61967 -68.77076 37300 ft 481 kts 86°
2026-04-21 00:40 45.62763 -68.67594 37299 ft 481 kts 86°
2026-04-21 00:41 45.63554 -68.58112 37297 ft 480 kts 86°
2026-04-21 00:41 45.64338 -68.48646 37303 ft 480 kts 86°
2026-04-21 00:42 45.65106 -68.39169 37303 ft 479 kts 87°
2026-04-21 00:42 45.65864 -68.29714 37301 ft 479 kts 87°
2026-04-21 00:43 45.66612 -68.20322 37296 ft 478 kts 87°
2026-04-21 00:43 45.67355 -68.10887 37289 ft 477 kts 88°
2026-04-21 00:44 45.68093 -68.01392 37277 ft 477 kts 88°
2026-04-21 00:44 45.68818 -67.92026 37268 ft 477 kts 88°
2026-04-21 00:45 45.70166 -67.77838 37254 ft 482 kts 78°
2026-04-21 00:45 45.71913 -67.68563 37241 ft 484 kts 79°
2026-04-21 00:46 45.72778 -67.63964 37091 ft 486 kts 79°
2026-04-21 00:46 45.73651 -67.59299 36840 ft 486 kts 79°
2026-04-21 00:46 45.74522 -67.54621 36597 ft 487 kts 79°
2026-04-21 00:46 45.75293 -67.49906 36349 ft 484 kts 86°
2026-04-21 00:47 45.75768 -67.45140 35968 ft 484 kts 86°
2026-04-21 00:47 45.76232 -67.40347 35222 ft 488 kts 86°
2026-04-21 00:47 45.76692 -67.35499 34380 ft 493 kts 86°
2026-04-21 00:47 45.77150 -67.30622 33331 ft 494 kts 86°
2026-04-21 00:48 45.77604 -67.25815 32895 ft 482 kts 87°
2026-04-21 00:48 45.78056 -67.21044 32253 ft 482 kts 88°
2026-04-21 00:48 45.78504 -67.16295 31656 ft 481 kts 88°
2026-04-21 00:48 45.78951 -67.11554 31060 ft 480 kts 89°
2026-04-21 00:49 45.79395 -67.06817 30457 ft 480 kts 89°
2026-04-21 00:49 45.79836 -67.02079 29790 ft 479 kts 89°
2026-04-21 00:49 45.80271 -66.97374 29218 ft 475 kts 89°
2026-04-21 00:49 45.80702 -66.92701 28631 ft 471 kts 88°
2026-04-21 00:50 45.81129 -66.88064 28061 ft 467 kts 88°
2026-04-21 00:50 45.81549 -66.83464 27495 ft 464 kts 88°
2026-04-21 00:50 45.81963 -66.78896 26950 ft 460 kts 88°
2026-04-21 00:50 45.82371 -66.74367 26407 ft 456 kts 87°
2026-04-21 00:51 45.82773 -66.69872 25894 ft 452 kts 87°
2026-04-21 00:51 45.83171 -66.65419 25377 ft 448 kts 87°
2026-04-21 00:51 45.83563 -66.61006 24874 ft 444 kts 86°
2026-04-21 00:51 45.83951 -66.56633 24375 ft 440 kts 86°
2026-04-21 00:52 45.84333 -66.52303 23928 ft 434 kts 86°
2026-04-21 00:52 45.84710 -66.48022 23324 ft 427 kts 86°
2026-04-21 00:52 45.85071 -66.43927 22818 ft 412 kts 86°
2026-04-21 00:52 45.85423 -66.39920 22205 ft 400 kts 87°
2026-04-21 00:53 45.85763 -66.36012 21679 ft 388 kts 87°
2026-04-21 00:53 45.86088 -66.32200 21226 ft 384 kts 87°
2026-04-21 00:53 45.86407 -66.28405 20755 ft 382 kts 87°
2026-04-21 00:53 45.86725 -66.24648 20284 ft 380 kts 87°
2026-04-21 00:54 45.87044 -66.20877 19818 ft 378 kts 87°
2026-04-21 00:54 45.87361 -66.17138 19353 ft 377 kts 87°
2026-04-21 00:54 45.87674 -66.13399 18902 ft 377 kts 86°
2026-04-21 00:54 45.87989 -66.09664 18446 ft 376 kts 86°
2026-04-21 00:55 45.88307 -66.05946 17937 ft 374 kts 86°
2026-04-21 00:55 45.88620 -66.02257 17436 ft 372 kts 86°
2026-04-21 00:55 45.88930 -65.98574 16933 ft 370 kts 86°
2026-04-21 00:55 45.89237 -65.94915 16451 ft 369 kts 86°
2026-04-21 00:56 45.89542 -65.91268 15971 ft 367 kts 86°
2026-04-21 00:56 45.89843 -65.87638 15498 ft 366 kts 86°
2026-04-21 00:56 45.90140 -65.84022 15033 ft 364 kts 86°
2026-04-21 00:56 45.90431 -65.80417 14576 ft 362 kts 85°
2026-04-21 00:57 45.90720 -65.76832 14125 ft 361 kts 85°
2026-04-21 00:57 45.91009 -65.73253 13626 ft 360 kts 85°
2026-04-21 00:57 45.91297 -65.69691 13122 ft 358 kts 85°
2026-04-21 00:57 45.91580 -65.66151 12624 ft 356 kts 85°
2026-04-21 00:58 45.91861 -65.62628 12136 ft 354 kts 86°
2026-04-21 00:58 45.92134 -65.59198 11646 ft 345 kts 86°
2026-04-21 00:58 45.92401 -65.55832 11168 ft 334 kts 86°
2026-04-21 00:58 45.92658 -65.52551 10703 ft 327 kts 86°
2026-04-21 00:59 45.92909 -65.49326 10245 ft 324 kts 86°
2026-04-21 00:59 45.93160 -65.46139 10012 ft 316 kts 86°
2026-04-21 00:59 45.93406 -65.43044 10020 ft 301 kts 86°
2026-04-21 00:59 45.93638 -65.40079 9898 ft 297 kts 86°
2026-04-21 01:00 45.93865 -65.37144 9762 ft 295 kts 86°
2026-04-21 01:00 45.94088 -65.34259 9417 ft 295 kts 86°
2026-04-21 01:00 45.94316 -65.31328 8995 ft 294 kts 86°
2026-04-21 01:00 45.94539 -65.28423 8534 ft 294 kts 85°
2026-04-21 01:01 45.94759 -65.25526 8213 ft 289 kts 85°
2026-04-21 01:01 45.94976 -65.22683 7697 ft 285 kts 85°
2026-04-21 01:01 45.95191 -65.19860 7163 ft 282 kts 84°
2026-04-21 01:01 45.95404 -65.17058 6695 ft 281 kts 84°
2026-04-21 01:02 45.95614 -65.14281 6329 ft 278 kts 84°
2026-04-21 01:02 45.95823 -65.11526 5906 ft 277 kts 84°
2026-04-21 01:02 45.96026 -65.08798 5378 ft 273 kts 83°
2026-04-21 01:02 45.96227 -65.06104 4836 ft 269 kts 83°
2026-04-21 01:03 45.96427 -65.03443 4288 ft 265 kts 83°
2026-04-21 01:03 45.96619 -65.00889 4131 ft 247 kts 82°
2026-04-21 01:03 45.96793 -64.98527 4066 ft 227 kts 82°
2026-04-21 01:03 45.96947 -64.96377 3993 ft 206 kts 82°
2026-04-21 01:04 45.97043 -64.95062 3941 ft 194 kts 82°
2026-04-21 01:04 45.97182 -64.93167 3842 ft 188 kts 82°
2026-04-21 01:04 45.97321 -64.91303 3759 ft 187 kts 82°
2026-04-21 01:04 45.97458 -64.89445 3680 ft 187 kts 81°
2026-04-21 01:05 45.97628 -64.87600 3600 ft 185 kts 73°
2026-04-21 01:05 45.98146 -64.85946 3488 ft 177 kts 53°
2026-04-21 01:05 45.98937 -64.84731 3261 ft 156 kts 39°
2026-04-21 01:05 45.99704 -64.83732 3042 ft 144 kts 39°
2026-04-21 01:06 46.00431 -64.82778 2868 ft 139 kts 39°
2026-04-21 01:06 46.01142 -64.81848 2688 ft 137 kts 39°
2026-04-21 01:06 46.01847 -64.80925 2504 ft 136 kts 39°
2026-04-21 01:06 46.02548 -64.80008 2319 ft 136 kts 39°
2026-04-21 01:07 46.03247 -64.79091 2150 ft 135 kts 39°
2026-04-21 01:07 46.03935 -64.78190 1978 ft 135 kts 39°
2026-04-21 01:07 46.04629 -64.77280 1801 ft 135 kts 39°
2026-04-21 01:07 46.05323 -64.76372 1624 ft 135 kts 39°
2026-04-21 01:08 46.06015 -64.75466 1443 ft 134 kts 39°
2026-04-21 01:08 46.06701 -64.74555 1260 ft 134 kts 40°
2026-04-21 01:08 46.07383 -64.73644 1129 ft 133 kts 41°
2026-04-21 01:08 46.08064 -64.72745 981 ft 132 kts 41°
2026-04-21 01:09 46.08738 -64.71852 836 ft 131 kts 41°
2026-04-21 01:09 46.09409 -64.70970 661 ft 130 kts 41°
2026-04-21 01:09 46.10076 -64.70097 469 ft 130 kts 41°
2026-04-21 01:09 46.10747 -64.69237 271 ft 128 kts 42°
2026-04-21 01:10 46.11354 -64.68439 229 ft 97 kts 42°
2026-04-21 01:10 46.11707 -64.67980 220 ft 44 kts 42°
2026-04-21 01:10 46.11835 -64.67854 222 ft 12 kts 346°
2026-04-21 01:10 46.11903 -64.67913 218 ft 11 kts 313°
2026-04-21 01:11 46.11923 -64.68008 224 ft 9 kts 245°
2026-04-21 01:11 46.11887 -64.68067 219 ft 7 kts 218°
2026-04-21 01:11 46.11818 -64.68148 220 ft 16 kts 221°
2026-04-21 01:11 46.11738 -64.68250 221 ft 15 kts 222°
2026-04-21 01:12 46.11667 -64.68342 223 ft 13 kts 222°
2026-04-21 01:12 46.11593 -64.68440 223 ft 17 kts 223°
2026-04-21 01:12 46.11514 -64.68554 224 ft 15 kts 235°
2026-04-21 01:12 46.11542 -64.68655 224 ft 10 kts 316°
2026-04-21 01:13 46.11586 -64.68722 224 ft 0 kts 313°